Weather History for LHBC - April, 2014

Change the Weather History Date:

Friday, April 25, 2014

  Actual Average Record
Temperature  
Mean Temperature 60 °F -  
Max Temperature 65 °F - - ()
Min Temperature 56 °F - - ()
Degree Days  
Heating Degree Days 4    
Growing Degree Days 10 (Base 50)    
Moisture  
Dew Point 56 °F    
Average Humidity 86    
Maximum Humidity 100    
Minimum Humidity 66    
Precipitation  
Precipitation 0.08 in - - ()
Sea Level Pressure  
Sea Level Pressure 29.92 in    
Wind  
Wind Speed 5 mph ()    
Max Wind Speed 11 mph    
Max Gust Speed -    
Visibility 6.7 miles    
Events Rain , Thunderstorm    
T = Trace of Precipitation, MM = Missing Value Source: Averaged Metar Reports

Daily Weather History Graph

Daily Weather History Graph

Search for Another Location

Airport or City:

Trip Planner

Search our weather history database for the weather conditions in past years. The results will help you decide how hot, cold, wet, or windy it might be!

Date:

Astronomy

Apr. 25, 2014 Rise Set
Actual Time 5:30 AM CEST 7:36 PM CEST
Civil Twilight 4:58 AM CEST 8:09 PM CEST
Nautical Twilight 4:17 AM CEST 8:50 PM CEST
Astronomical Twilight 3:32 AM CEST 9:35 PM CEST
Moon 3:24 AM CEST (4/25) 3:24 PM CEST (4/25)
Length of Visible Light 15h 11m
Length of Day
14h 05m
Waning Crescent, 17% of the Moon is Illuminated
Apr 25
Waning Crescent
Apr 29
New
May 7
First Quarter
May 14
Full
May 21
Last Quarter

Hourly Weather History & Observations

Time (CEST) Temp. Dew Point Humidity Pressure Visibility Wind Dir Wind Speed Gust Speed Precip Events Conditions
12:00 AM 61 °F 54 °F 73% 29.91 in - East 6.7 mph - -  
1:00 AM 60 °F 54 °F 74% 29.91 in - East 8.9 mph - -  
2:00 AM 58 °F 54 °F 83% 29.91 in - East 6.7 mph - -  
3:00 AM 58 °F 55 °F 85% 29.90 in - ESE 6.7 mph - -  
4:00 AM 57 °F 56 °F 93% 29.90 in - SE 6.7 mph - -  
4:45 AM 57.2 °F 55.4 °F 94% 29.92 in 4.3 mi SE 2.3 mph - N/A Rain Rain
5:00 AM 57 °F 55 °F 92% 29.91 in 4 mi SE 2.2 mph - - Rain Rain
5:45 AM 57.2 °F 55.4 °F 94% 29.92 in 3.1 mi SE 3.5 mph - N/A Rain Rain
6:00 AM 57 °F 56 °F 93% 29.91 in 3 mi SE 4.5 mph - - Rain Rain
6:45 AM 57.2 °F 55.4 °F 94% 29.92 in 3.7 mi ESE 4.6 mph - N/A Rain Light Rain
7:00 AM 56 °F 55 °F 97% 29.92 in 4 mi ESE 4.5 mph - - Rain Light Rain
7:45 AM 57.2 °F 57.2 °F 100% 29.92 in 3.7 mi SE 3.5 mph - N/A Rain Light Rain
8:00 AM 58 °F 57 °F 94% 29.92 in 4 mi SE 4.5 mph - - Rain Light Rain
9:00 AM 59 °F 57 °F 92% 29.93 in - South 2.2 mph - -  
10:00 AM 60 °F 58 °F 90% 29.94 in - SSE 2.2 mph - -  
10:45 AM 62.6 °F 57.2 °F 82% 29.95 in 6.2 mi SSW 3.5 mph - N/A Rain Light Rain
11:00 AM 62 °F 57 °F 80% 29.94 in 7 mi SSW 2.2 mph - - Rain Light Rain
12:00 PM 62 °F 58 °F 81% 29.94 in - SSE 2.2 mph - -  
12:45 PM 64.4 °F 57.2 °F 77% 29.95 in 6.2 mi SSE 3.5 mph - N/A   Overcast
1:00 PM 64 °F 57 °F 71% 29.93 in 11 mi SSE 4.5 mph - -   Partly Cloudy
1:45 PM 64.4 °F 57.2 °F 77% 29.92 in 6.2 mi South 3.5 mph - N/A   Mostly Cloudy
2:00 PM 65 °F 56 °F 66% 29.92 in 12 mi South 4.5 mph - -   Partly Cloudy
2:45 PM 64.4 °F 59.0 °F 83% 29.92 in 6.2 mi West 9.2 mph - N/A   Mostly Cloudy
3:00 PM 64 °F 58 °F 75% 29.92 in 14 mi West 8.9 mph - -   Partly Cloudy
4:00 PM 63 °F 58 °F 77% 29.91 in - NW 6.7 mph - -  
4:45 PM 62.6 °F 57.2 °F 82% 29.92 in 6.2 mi NW 10.4 mph - N/A Thunderstorm Thunderstorm
5:00 PM 62 °F 58 °F 81% 29.91 in 14 mi NW 11.2 mph - - Thunderstorm Thunderstorm
6:00 PM 62 °F 57 °F 77% 29.91 in - NNW 8.9 mph - -  
7:00 PM 60 °F 56 °F 84% 29.92 in - WNW 4.5 mph - -  
7:45 PM 59.0 °F 57.2 °F 94% 29.92 in 6.2 mi NNW 3.5 mph - N/A   Overcast
8:00 PM 59 °F 57 °F 92% 29.92 in 9 mi NNW 4.5 mph - - Rain Light Rain Showers
9:00 PM 58 °F 56 °F 92% 29.93 in - North 2.2 mph - -  
10:00 PM 56 °F 55 °F 96% 29.94 in - NW 2.2 mph - -  
11:00 PM 56 °F 55 °F 97% 29.94 in - Calm Calm - -